Change the Weather History Date:

Wednesday, February 20, 2013

  Actual Average Record
Temperature  
Mean Temperature 17 °F -  
Max Temperature 24 °F 34 °F 42 °F (1998)
Min Temperature 8 °F 20 °F -11 °F (2011)
Degree Days  
Heating Degree Days 48    
Moisture  
Dew Point 13 °F    
Average Humidity 80    
Maximum Humidity 93    
Minimum Humidity 57    
Precipitation  
Precipitation 0.01 in 0.07 in - ()
Sea Level Pressure  
Sea Level Pressure 30.50 in    
Wind  
Wind Speed 5 mph ()    
Max Wind Speed 10 mph    
Max Gust Speed -    
Visibility 6.2 miles    
Events      
Averages and records for this station are not official NWS values.
T = Trace of Precipitation, MM = Missing Value Source: Averaged Metar Reports

Daily Weather History Graph

Daily Weather History Graph

Search for Another Location

Airport or City:

Trip Planner

Search our weather history database for the weather conditions in past years. The results will help you decide how hot, cold, wet, or windy it might be!

Date:

Astronomy

Feb. 20, 2013 Rise Set
Actual Time 7:40 AM CET 5:19 PM CET
Civil Twilight 6:57 AM CET 6:02 PM CET
Nautical Twilight 6:08 AM CET 6:51 PM CET
Astronomical Twilight 5:20 AM CET 7:40 PM CET
Moon 11:33 AM CET (2/20) 4:40 AM CET (2/20)
Length of Visible Light 11h 05m
Length of Day
9h 39m
Waxing Gibbous, 74% of the Moon is Illuminated
Feb 20
Waxing Gibbous
Feb 25
Full
Mar 4
Last Quarter
Mar 11
New
Mar 19
First Quarter

Hourly Weather History & Observations

Time (CET) Temp. Windchill Dew Point Humidity Pressure Visibility Wind Dir Wind Speed Gust Speed Precip Events Conditions
12:10 AM 14.0 °F 5.1 °F 10.4 °F 86% 30.45 in 6.2 mi NE 5.8 mph - N/A   Scattered Clouds
1:10 AM 17.6 °F 9.3 °F 14.0 °F 86% 30.45 in 6.2 mi NE 5.8 mph - N/A   Mostly Cloudy
1:40 AM 19.4 °F 10.4 °F 14.0 °F 80% 30.48 in 6.2 mi NE 6.9 mph - N/A   Mostly Cloudy
2:15 AM 19.4 °F 11.5 °F 14.0 °F 80% 30.48 in 6.2 mi NNE 5.8 mph - N/A   Mostly Cloudy
2:40 AM 19.4 °F 12.8 °F 14.0 °F 80% 30.48 in 6.2 mi NNE 4.6 mph - N/A   Mostly Cloudy
3:10 AM 19.4 °F 10.4 °F 15.8 °F 86% 30.48 in 6.2 mi North 6.9 mph - N/A   Mostly Cloudy
3:41 AM 19.4 °F 11.5 °F 15.8 °F 86% 30.48 in 6.2 mi North 5.8 mph - N/A   Mostly Cloudy
4:10 AM 19.4 °F 11.5 °F 15.8 °F 86% 30.48 in 6.2 mi North 5.8 mph - N/A   Mostly Cloudy
4:40 AM 19.4 °F 11.5 °F 14.0 °F 80% 30.48 in 6.2 mi North 5.8 mph - N/A   Mostly Cloudy
5:12 AM 17.6 °F 9.3 °F 14.0 °F 86% 30.48 in 6.2 mi NNE 5.8 mph - N/A   Mostly Cloudy
5:40 AM 17.6 °F - 14.0 °F 86% 30.48 in 6.2 mi North 2.3 mph - N/A   Mostly Cloudy
6:10 AM 15.8 °F - 14.0 °F 93% 30.51 in 6.2 mi Calm Calm - N/A   Mostly Cloudy
6:40 AM 17.6 °F - 14.0 °F 86% 30.51 in 6.2 mi Variable 1.2 mph - N/A   Overcast
7:00 AM 18 °F - 15 °F 82%  in 44 mi NNE 4.5 mph - -   Partly Cloudy
7:11 AM 17.6 °F - 14.0 °F 86% 30.51 in 6.2 mi Variable 1.2 mph - N/A   Mostly Cloudy
7:40 AM 17.6 °F - 14.0 °F 86% 30.51 in 6.2 mi Calm Calm - N/A   Mostly Cloudy
8:10 AM 17.6 °F - 14.0 °F 86% 30.51 in 6.2 mi Variable 2.3 mph - N/A   Mostly Cloudy
8:40 AM 17.6 °F - 14.0 °F 86% 30.54 in 6.2 mi Variable 1.2 mph - N/A   Mostly Cloudy
9:11 AM 17.6 °F 10.7 °F 14.0 °F 86% 30.54 in 6.2 mi North 4.6 mph - N/A   Scattered Clouds
9:42 AM 17.6 °F 10.7 °F 12.2 °F 79% 30.54 in 6.2 mi NNW 4.6 mph - N/A   Partly Cloudy
10:14 AM 19.4 °F 12.8 °F 14.0 °F 80% 30.54 in 6.2 mi NNW 4.6 mph - N/A   Partly Cloudy
10:42 AM 21.2 °F 13.6 °F 14.0 °F 74% 30.54 in 6.2 mi North 5.8 mph - N/A   Partly Cloudy
11:14 AM 23.0 °F 14.7 °F 15.8 °F 74% 30.54 in - North 6.9 mph - N/A   Clear
11:41 AM 23.0 °F 12.4 °F 14.0 °F 68% 30.54 in 6.2 mi NNE 10.4 mph - N/A   Partly Cloudy
12:11 PM 23.0 °F 13.1 °F 15.8 °F 74% 30.54 in 6.2 mi NNE 9.2 mph - N/A   Partly Cloudy
12:42 PM 24.8 °F 16.1 °F 15.8 °F 69% 30.54 in 6.2 mi NE 8.1 mph - N/A   Partly Cloudy
1:00 PM 23 °F - 14 °F 57%  in 37 mi NE 8.9 mph - -   Partly Cloudy
1:10 PM 24.8 °F 16.1 °F 14.0 °F 64% 30.54 in 6.2 mi NE 8.1 mph - N/A   Partly Cloudy
1:41 PM 23.0 °F 13.9 °F 14.0 °F 68% 30.51 in - NE 8.1 mph - N/A   Clear
2:10 PM 24.8 °F 16.9 °F 15.8 °F 69% 30.51 in - ENE 6.9 mph - N/A   Clear
2:49 PM 24.8 °F 17.9 °F 14.0 °F 64% 30.51 in - NE 5.8 mph - N/A   Clear
3:10 PM 24.8 °F 17.9 °F 15.8 °F 69% 30.51 in - NE 5.8 mph - N/A   Clear
4:10 PM 23.0 °F 17.0 °F 14.0 °F 68% 30.48 in - NE 4.6 mph - N/A   Clear
4:40 PM 23.0 °F 18.4 °F 14.0 °F 68% 30.48 in - NE 3.5 mph - N/A   Clear
5:10 PM 21.2 °F 16.4 °F 12.2 °F 68% 30.48 in - NE 3.5 mph - N/A   Clear
5:40 PM 19.4 °F 14.3 °F 12.2 °F 74% 30.48 in - NE 3.5 mph - N/A   Clear
6:14 PM 17.6 °F - 12.2 °F 79% 30.48 in - NNE 1.2 mph - N/A   Clear
6:40 PM 15.8 °F - 10.4 °F 79% 30.48 in - NNE 2.3 mph - N/A   Clear
7:00 PM 17 °F - 12 °F 72%  in 47 mi ENE 2.2 mph - -   Partly Cloudy
7:10 PM 14.0 °F 8.2 °F 10.4 °F 86% 30.48 in - NE 3.5 mph - N/A   Clear
7:41 PM 14.0 °F 6.5 °F 10.4 °F 86% 30.48 in - NE 4.6 mph - N/A   Clear
8:10 PM 12.2 °F 6.1 °F 8.6 °F 85% 30.48 in - NNE 3.5 mph - N/A   Clear
8:46 PM 14.0 °F - 10.4 °F 86% 30.48 in - North 2.3 mph - N/A   Clear
9:10 PM 12.2 °F 6.1 °F 8.6 °F 85% 30.48 in - North 3.5 mph - N/A   Clear
9:40 PM 10.4 °F 2.2 °F 6.8 °F 85% 30.48 in - NNE 4.6 mph - N/A   Clear
10:10 PM 10.4 °F 0.8 °F 8.6 °F 92% 30.48 in - NNE 5.8 mph - N/A   Clear
10:41 PM 12.2 °F 4.3 °F 8.6 °F 85% 30.48 in - North 4.6 mph - N/A   Clear
11:10 PM 10.4 °F - 8.6 °F 92% 30.48 in - NNE 2.3 mph - N/A   Clear
11:40 PM 8.6 °F -1.3 °F 6.8 °F 92% 30.48 in - NNE 5.8 mph - N/A   Clear